Flag for Norway Weather past 2 weeks in Knarvik, Norway

Now
54 °F

Overcast.


Feels Like: 53 °F
Forecast: 53 / 72 °F
Wind: 6 mph from Northwest

Location: Bergen / Florida

Current Time: Sep 2, 2015 at 9:34:30 AM

Latest Report: Sep 2, 2015 at 8:00 AM


Visibility: 14 mi

Pressure: 29.68 "Hg

Humidity: 76%

Dew point: 47 °F

Location of KnarvikLocation

Historic Weather in Knarvik — Graph

°F

Knarvik temperature yesterday

Maximum temperature yesterday: 65 °F (at 3:00 PM)
Minimum temperature yesterday: 51 °F (at 6:00 AM)
Average temperature yesterday: 58 °F

Past Weeks' High & Low Weather Summary

 TemperatureHumidityPressure
High81 °F (Aug 19, 2:00 PM)88% (Aug 29, 6:00 AM)30.24 "Hg (Aug 29, 6:00 AM)
Low51 °F (Sep 1, 6:00 AM)15% (Aug 19, 3:00 PM)29.44 "Hg (Aug 27, 7:00 AM)
Average64 °F61%29.92 "Hg
* Reported Aug 18 8:00 AM — Sep 2 8:00 AM, Knarvik, Weather by CustomWeather, © 2015

Note: Actual official high and low records may vary slightly from our data, if they occured in-between our weather recording intervals... More about our weather records

Advertising

Knarvik weather history for previous 24 hours

 ConditionsComfort  
Time TempWeatherWind HumidityBarometerVisibility
8:00 AM
Wed, Sep 2
54 °FOvercast.6 mph76%29.68 "Hg14 mi
7:00 AM54 °FCool.5 mph77%29.70 "HgN/A
6:00 AM55 °FCool.5 mph73%29.72 "HgN/A
5:00 AM56 °FCool.2 mph66%29.73 "HgN/A
4:00 AM59 °FRefreshingly cool.3 mph58%29.75 "HgN/A
3:00 AM60 °FRefreshingly cool.3 mph56%29.75 "HgN/A
2:00 AM59 °FCool.3 mph63%29.77 "HgN/A
1:00 AM59 °FCool.5 mph65%29.78 "HgN/A
12:00 AM59 °FCool.5 mph64%29.80 "HgN/A
10:00 PM
Tue, Sep 1
62 °FRefreshingly cool.3 mph51%29.83 "HgN/A
9:00 PM62 °FRefreshingly cool.5 mph52%29.83 "HgN/A
8:00 PM61 °FLight rain. Overcast.5 mph61%29.83 "Hg16 mi
7:00 PM62 °FRefreshingly cool.5 mph58%29.85 "HgN/A
6:00 PM63 °FMild.5 mph53%29.86 "HgN/A
5:00 PM63 °FOvercast.1 mph54%29.87 "Hg19 mi
4:00 PM65 °FMild.2 mph50%29.88 "HgN/A
3:00 PM65 °FMild.2 mph43%29.88 "HgN/A
2:00 PM64 °FOvercast.3 mph48%29.90 "Hg19 mi
1:00 PM64 °FMild.8 mph51%29.89 "HgN/A
12:00 PM63 °FMild.2 mph59%29.88 "HgN/A
11:00 AM61 °FPartly sunny.2 mph63%29.88 "Hg19 mi
10:00 AM57 °FCool.2 mph78%29.88 "HgN/A
9:00 AM54 °FCool.1 mph86%29.88 "HgN/A
Weather by CustomWeather, © 2015

See weather overviewHow to use our weather pages